Regional Weather Roundup
Issued by NWS

Home | Current Version | Previous Version | Graphics & Text | Print | Product List | Glossary On
Versions: 1 2 3 4 5 6 7 8 9 10 11 12 13 14 15 16 17 18 19 20 21 22 23 24 25 26 27 28 29 30 31 32 33 34 35 36 37 38 39 40 41 42 43 44 45 46 47 48 49 50
000
ASUS43 KIND 280359
RWRIN

WEATHER ROUNDUP FOR INDIANA
NATIONAL WEATHER SERVICE INDIANAPOLIS IN
1200 AM EDT WED SEP 28 2016

NOTE: "FAIR" INDICATES FEW OR NO CLOUDS BELOW 12,000 FEET WITH NO
SIGNIFICANT WEATHER AND/OR OBSTRUCTIONS TO VISIBILITY.

* - STATION DOES NOT REPORT WEATHER SUCH AS PRECIPITATION OR FOG.

+ - STATION NOT QUALITY CONTROLLED BY THE NATIONAL WEATHER SERVICE.
    USE DATA WITH CAUTION...ESPECIALLY DEWPOINT AND RELATIVE
    HUMIDITY OBSERVATIONS.

INZ001>003-010>013-019-020-280500-
NORTHWEST INDIANA

CITY           SKY/WX    TMP DP  RH WIND       PRES   REMARKS
GARY /AIRPORT/ MOCLDY    54  43  66 NW3       29.78S
KNOX *+        PTCLDY    46  30  53 CALM      29.79S
MONTICELLO +   PTCLDY    53  37  54 CALM      29.79F

$$

LMZ046-743>745-280500-
SOUTHERN LAKE MICHIGAN

STATION/POSITION TIME  TEMP    WIND        PRES    WAVE
                       AIR SEA DIR/SP/G            HT
                 (UTC) (F)     (DEG/KT/KT) (MB)    (FT)
BURNS HARBOR     0305   62     180/  6/  7 1008.8S
MICHIGAN CITY    0300   63      30/ 11/ 12   N/A
5NW MICH CITY    0300   64 67   60/ 12/ 16   N/A     3

$$

INZ004-005-014>016-021>024-280500-
NORTH CENTRAL INDIANA

CITY           SKY/WX    TMP DP  RH WIND       PRES   REMARKS
GOSHEN         MOCLDY    50  41  71 CALM      29.80S
SOUTH BEND     MOCLDY    54  47  77 E3        29.81S
WARSAW +       PTCLDY    46  37  71 CALM      29.80S

$$

INZ006>009-017-018-025>027-280500-
NORTHEAST INDIANA

CITY           SKY/WX    TMP DP  RH WIND       PRES   REMARKS
ANGOLA *+        N/A     46  36  66 CALM      29.81R
AUBURN +       PTCLDY    46  41  81 CALM      29.82S
FORT WAYNE     CLOUDY    50  42  74 SW3       29.82R
KENDALLVILLE + PTCLDY    50  42  73 CALM      29.81S

$$

INZ028-029-035-036-043>045-051>053-280500-
WEST CENTRAL INDIANA

CITY           SKY/WX    TMP DP  RH WIND       PRES   REMARKS
CRAWFORDSVL +  CLOUDY    55  49  80 SW5       29.82S
GREENCASTLE +  MOCLDY    55  54  94 CALM      29.84S
LAFAYETTE      PTCLDY    50  46  86 CALM      29.80S
TERRE HAUTE    CLOUDY    60  50  69 CALM      29.83S

$$

INZ030>032-037>040-046>048-054>057-064-065-280500-
CENTRAL INDIANA

CITY           SKY/WX    TMP DP  RH WIND       PRES   REMARKS
FRANKFORT +    PTCLDY    52  46  79 S3        29.83S
INDIANAPOLIS   MOCLDY    59  49  69 SW8       29.83S
-EAGLE CREEK   PTCLDY    61  48  62 SW6       29.82S
MT COMFORT *+  PTCLDY    55  48  76 CALM      29.84S
SHELBYVILLE    PTCLDY    58  50  75 S6        29.83F
ZIONSVILLE +   PTCLDY    54  47  79 SW5       29.83S

$$

INZ033-034-041-042-049-050-058-059-280500-
EAST CENTRAL INDIANA

CITY           SKY/WX    TMP DP  RH WIND       PRES   REMARKS
MUNCIE         CLEAR     60  46  59 S6        29.83S

$$

INZ060-061-067>069-081>083-085>088-280500-
SOUTHWEST INDIANA

CITY           SKY/WX    TMP DP  RH WIND       PRES   REMARKS
EVANSVILLE     CLEAR     61  52  72 CALM      29.88F
HUNTINGBURG *+   N/A     61  48  63 S9        29.89S

$$

INZ062-063-066-070>080-084-089>092-280500-
SOUTH CENTRAL AND SOUTHEAST INDIANA

CITY           SKY/WX    TMP DP  RH WIND       PRES   REMARKS
BLOOMINGTON    CLEAR     58  48  69 SW6       29.85S
MADISON *+     CLEAR     59  46  63 S5        29.90S
SEYMOUR +      CLEAR     55  50  82 CALM      29.86S

$$





USA.gov is the U.S. government's official web portal to all federal, state and local government web resources and services.